Location: Castelbiague
(43.0361°N, 0.9246°E)
Time: 09:46:45
(UTC+00:00)

NOSS 3-2 (C) - Pass Details

Date: 17 June 2021
Orbit: 778 x 1434 km, 63.4° (Epoch: 14 July)

Event Time Altitude Azimuth Distance (km) Brightness Sun altitude
Rises 20:24:06 0° 220° (SW) 3,299 6.3 -7.4°
Reaches altitude 10° 20:26:24 10° 221° (SW) 2,414 5.6 -7.8°
Maximum altitude 20:31:56 76° 308° (NW) 922 3.6 -8.5°
Drops below altitude 10° 20:38:21 10° 34° (NE) 2,780 6.0 -9.3°
Sets 20:41:10 0° 36° (NE) 3,837 6.7 -9.7°
